�������l�o���
Date,Time,MP-1(��Sv/h),MP-2(��Sv/h),MP-3(��Sv/h),MP-4(��Sv/h),MP-5(��Sv/h),MP-6(��Sv/h),MP-7(��Sv/h),MP-8(��Sv/h),����,����(m/s),���J
2019/11/13,00:00,0.719,1.030,0.678,1.276,0.898,0.413,0.717,0.681,��,4.2,��
2019/11/13,00:10,0.721,1.030,0.680,1.276,0.896,0.412,0.717,0.681,���k��,3.8,��
2019/11/13,00:20,0.720,1.031,0.680,1.276,0.900,0.412,0.717,0.680,�k��,3.8,��
2019/11/13,00:30,0.721,1.030,0.681,1.276,0.900,0.412,0.717,0.681,���k��,3.9,��
2019/11/13,00:40,0.719,1.032,0.679,1.276,0.901,0.413,0.718,0.680,���k��,4.9,��
2019/11/13,00:50,0.720,1.031,0.679,1.277,0.900,0.413,0.717,0.679,���k��,4.3,��
2019/11/13,01:00,0.722,1.030,0.681,1.276,0.899,0.411,0.717,0.680,���k��,4.2,��
2019/11/13,01:10,0.721,1.031,0.682,1.276,0.899,0.414,0.717,0.678,���k��,5.5,��
2019/11/13,01:20,0.720,1.031,0.679,1.273,0.899,0.413,0.717,0.680,�k��,4.7,��
2019/11/13,01:30,0.720,1.030,0.680,1.276,0.900,0.413,0.717,0.680,�k��,5.0,��
2019/11/13,01:40,0.722,1.029,0.680,1.276,0.902,0.412,0.717,0.681,�k��,6.0,��
2019/11/13,01:50,0.721,1.028,0.680,1.275,0.901,0.412,0.717,0.680,�k��,5.0,��
2019/11/13,02:00,0.721,1.029,0.680,1.276,0.900,0.412,0.717,0.680,�k��,5.3,��
2019/11/13,02:10,0.720,1.029,0.680,1.276,0.900,0.412,0.718,0.679,�k��,4.7,��
2019/11/13,02:20,0.722,1.029,0.680,1.279,0.901,0.413,0.717,0.680,�k��,3.8,��
2019/11/13,02:30,0.722,1.031,0.680,1.275,0.902,0.414,0.719,0.680,���k��,3.8,��
2019/11/13,02:40,0.721,1.031,0.680,1.278,0.900,0.413,0.718,0.680,���k��,4.2,��
2019/11/13,02:50,0.721,1.031,0.681,1.275,0.901,0.413,0.716,0.680,���k��,4.5,��
2019/11/13,03:00,0.720,1.029,0.682,1.275,0.900,0.413,0.717,0.680,���k��,4.5,��
2019/11/13,03:10,0.720,1.032,0.681,1.276,0.899,0.412,0.718,0.681,���k��,4.5,��
2019/11/13,03:20,0.720,1.031,0.680,1.278,0.899,0.411,0.716,0.680,���k��,5.5,��
2019/11/13,03:30,0.722,1.028,0.682,1.275,0.899,0.413,0.717,0.681,���k��,6.3,��
2019/11/13,03:40,0.720,1.029,0.681,1.276,0.900,0.413,0.717,0.680,���k��,5.5,��
2019/11/13,03:50,0.721,1.028,0.680,1.275,0.899,0.413,0.718,0.680,���k��,4.4,��
2019/11/13,04:00,0.720,1.031,0.681,1.275,0.899,0.413,0.717,0.681,���k��,3.8,��
2019/11/13,04:10,0.720,1.031,0.681,1.278,0.900,0.412,0.717,0.681,��,3.8,��
2019/11/13,04:20,0.719,1.031,0.680,1.277,0.900,0.412,0.717,0.681,���k��,4.7,��
2019/11/13,04:30,0.723,1.030,0.681,1.276,0.898,0.411,0.716,0.679,���k��,5.0,��
2019/11/13,04:40,0.717,1.029,0.681,1.276,0.898,0.411,0.716,0.681,���k��,6.9,��
2019/11/13,04:50,0.721,1.031,0.679,1.276,0.898,0.412,0.717,0.680,���k��,5.5,��
2019/11/13,05:00,0.720,1.031,0.680,1.276,0.900,0.413,0.717,0.682,���k��,4.9,��
2019/11/13,05:10,0.720,1.029,0.682,1.273,0.901,0.412,0.716,0.680,���k��,5.8,��
2019/11/13,05:20,0.721,1.030,0.681,1.275,0.901,0.411,0.717,0.680,��,5.6,��
2019/11/13,05:30,0.721,1.027,0.681,1.277,0.898,0.411,0.717,0.680,��,5.0,��
2019/11/13,05:40,0.720,1.027,0.682,1.273,0.903,0.412,0.716,0.680,��,4.1,��
2019/11/13,05:50,0.720,1.031,0.680,1.276,0.901,0.411,0.717,0.679,���k��,4.3,��
2019/11/13,06:00,0.719,1.029,0.680,1.272,0.897,0.411,0.717,0.680,���k��,4.5,��
2019/11/13,06:10,0.720,1.029,0.681,1.273,0.898,0.413,0.716,0.681,���k��,4.9,��
2019/11/13,06:20,0.718,1.030,0.681,1.276,0.898,0.411,0.718,0.681,���k��,4.9,��
2019/11/13,06:30,0.719,1.026,0.680,1.273,0.900,0.411,0.717,0.679,�k��,4.2,��
2019/11/13,06:40,0.719,1.029,0.679,1.275,0.899,0.412,0.715,0.680,�k��,5.5,��
2019/11/13,06:50,0.720,1.030,0.679,1.275,0.903,0.412,0.716,0.680,�k��,6.6,��
2019/11/13,07:00,0.720,1.031,0.679,1.276,0.899,0.409,0.718,0.680,�k��,5.6,��
2019/11/13,07:10,0.718,1.029,0.679,1.277,0.899,0.412,0.717,0.679,���k��,5.0,��
2019/11/13,07:20,0.718,1.028,0.678,1.276,0.899,0.412,0.716,0.680,���k��,5.0,��
2019/11/13,07:30,0.718,1.030,0.679,1.277,0.900,0.412,0.717,0.678,��,4.2,��
2019/11/13,07:40,0.721,1.028,0.680,1.276,0.900,0.412,0.717,0.679,��,3.8,��
2019/11/13,07:50,0.720,1.030,0.676,1.276,0.900,0.410,0.719,0.680,��,2.7,��
2019/11/13,08:00,0.721,1.030,0.680,1.276,0.900,0.414,0.718,0.681,��,1.9,��
2019/11/13,08:10,0.722,1.029,0.680,1.275,0.898,0.413,0.719,0.681,���쐼,1.5,��
2019/11/13,08:20,0.723,1.032,0.679,1.276,0.901,0.412,0.718,0.680,��쐼,1.7,��
2019/11/13,08:30,0.722,1.031,0.680,1.276,0.902,0.412,0.719,0.681,��,1.4,��
2019/11/13,08:40,0.721,1.026,0.681,1.277,0.901,0.413,0.719,0.681,��쐼,0.7,��
2019/11/13,08:50,0.721,1.028,0.681,1.278,0.900,0.413,0.718,0.679,��,1.5,��
2019/11/13,09:00,0.722,1.029,0.680,1.275,0.900,0.414,0.718,0.681,��쐼,1.5,��
2019/11/13,09:10,0.723,1.026,0.682,1.277,0.900,0.412,0.718,0.681,��쓌,1.2,��
2019/11/13,09:20,0.723,1.027,0.682,1.279,0.901,0.414,0.717,0.680,���쓌,2.3,��
2019/11/13,09:30,0.721,1.024,0.680,1.278,0.901,0.413,0.715,0.682,���쓌,1.9,��
2019/11/13,09:40,0.722,1.025,0.680,1.275,0.901,0.415,0.717,0.680,�쓌,2.1,��
2019/11/13,09:50,0.720,1.028,0.680,1.279,0.902,0.414,0.716,0.681,�쓌,2.4,��
2019/11/13,10:00,0.721,1.028,0.680,1.279,0.902,0.415,0.718,0.680,���쓌,2.6,��
2019/11/13,10:10,0.720,1.026,0.681,1.278,0.902,0.414,0.717,0.681,�쓌,2.6,��
2019/11/13,10:20,0.722,1.028,0.678,1.279,0.904,0.413,0.718,0.680,�쓌,3.3,��
2019/11/13,10:30,0.720,1.029,0.677,1.278,0.903,0.411,0.716,0.682,��쓌,3.6,��
2019/11/13,10:40,0.720,1.028,0.679,1.277,0.904,0.412,0.718,0.681,��쓌,4.4,��
2019/11/13,10:50,0.720,1.028,0.678,1.280,0.901,0.412,0.717,0.682,��쓌,4.3,��
2019/11/13,11:00,0.719,1.032,0.676,1.281,0.901,0.412,0.718,0.682,��쓌,5.2,��
2019/11/13,11:10,0.720,1.032,0.677,1.278,0.902,0.412,0.718,0.683,��쓌,4.9,��
2019/11/13,11:20,0.720,1.034,0.679,1.278,0.900,0.411,0.718,0.681,��쓌,4.4,��
2019/11/13,11:30,0.720,1.034,0.681,1.281,0.903,0.413,0.719,0.682,��쓌,6.6,��
2019/11/13,11:40,0.721,1.034,0.682,1.278,0.902,0.410,0.717,0.684,��쓌,6.7,��
2019/11/13,11:50,0.721,1.032,0.681,1.276,0.902,0.412,0.720,0.682,��쓌,7.1,��
2019/11/13,12:00,0.721,1.030,0.680,1.278,0.904,0.412,0.718,0.681,��쓌,6.9,��
2019/11/13,12:10,0.721,1.033,0.683,1.280,0.903,0.413,0.718,0.682,��쓌,7.7,��
2019/11/13,12:20,0.721,1.034,0.684,1.278,0.905,0.415,0.718,0.681,��쓌,7.1,��
2019/11/13,12:30,0.721,1.034,0.682,1.281,0.906,0.416,0.717,0.680,��쓌,7.8,��
2019/11/13,12:40,0.722,1.034,0.684,1.280,0.904,0.415,0.719,0.680,��쓌,6.6,��
2019/11/13,12:50,0.721,1.034,0.683,1.281,0.906,0.416,0.719,0.679,��쓌,8.0,��
2019/11/13,13:00,0.721,1.034,0.683,1.281,0.904,0.416,0.719,0.679,��쓌,8.2,��
2019/11/13,13:10,0.721,1.035,0.680,1.279,0.903,0.417,0.718,0.681,��쓌,7.7,��
2019/11/13,13:20,0.723,1.036,0.681,1.283,0.905,0.416,0.719,0.677,��쓌,9.1,��
2019/11/13,13:30,0.723,1.036,0.682,1.279,0.905,0.416,0.719,0.678,��쓌,9.4,��
2019/11/13,13:40,0.722,1.038,0.680,1.280,0.906,0.415,0.718,0.678,��쓌,9.4,��
2019/11/13,13:50,0.718,1.035,0.682,1.280,0.906,0.416,0.720,0.678,��쓌,8.6,��
2019/11/13,14:00,0.719,1.036,0.681,1.281,0.907,0.415,0.719,0.679,��쓌,7.7,��
2019/11/13,14:10,0.719,1.034,0.682,1.283,0.905,0.414,0.717,0.679,��쓌,8.5,��
2019/11/13,14:20,0.720,1.035,0.683,1.279,0.905,0.416,0.719,0.679,��쓌,10.8,��
2019/11/13,14:30,0.720,1.035,0.681,1.283,0.906,0.417,0.718,0.680,��쓌,8.2,��
2019/11/13,14:40,0.719,1.035,0.680,1.282,0.906,0.417,0.718,0.680,��쓌,7.8,��
2019/11/13,14:50,0.720,1.038,0.684,1.279,0.905,0.417,0.718,0.681,��,8.3,��
2019/11/13,15:00,0.721,1.037,0.682,1.283,0.907,0.417,0.719,0.679,��,7.1,��
2019/11/13,15:10,0.719,1.036,0.681,1.281,0.906,0.415,0.720,0.679,��,6.6,��
2019/11/13,15:20,0.721,1.036,0.681,1.282,0.908,0.416,0.718,0.680,��,5.5,��
2019/11/13,15:30,0.721,1.038,0.684,1.279,0.904,0.418,0.721,0.681,��,5.5,��
2019/11/13,15:40,0.720,1.041,0.686,1.281,0.905,0.418,0.720,0.682,��,4.3,��
2019/11/13,15:50,0.721,1.038,0.683,1.281,0.906,0.417,0.720,0.682,��,5.3,��
2019/11/13,16:00,0.723,1.042,0.685,1.281,0.907,0.418,0.718,0.682,��,6.0,��
2019/11/13,16:10,0.722,1.046,0.685,1.282,0.905,0.416,0.717,0.683,��,4.9,��
2019/11/13,16:20,0.722,1.044,0.685,1.280,0.908,0.417,0.718,0.682,��,6.3,��
2019/11/13,16:30,0.723,1.043,0.685,1.282,0.905,0.417,0.720,0.681,��,5.5,��
2019/11/13,16:40,0.723,1.043,0.684,1.278,0.907,0.417,0.718,0.682,��,6.7,��
2019/11/13,16:50,0.723,1.043,0.684,1.281,0.908,0.417,0.719,0.682,��,6.0,��
2019/11/13,17:00,0.723,1.043,0.684,1.281,0.910,0.417,0.718,0.683,��쐼,5.3,��
2019/11/13,17:10,0.724,1.043,0.685,1.282,0.909,0.417,0.719,0.683,��쐼,4.9,��
2019/11/13,17:20,0.722,1.044,0.685,1.280,0.907,0.419,0.718,0.685,��쐼,5.8,��
2019/11/13,17:30,0.725,1.045,0.685,1.283,0.910,0.417,0.718,0.684,��쐼,5.0,��
2019/11/13,17:40,0.721,1.042,0.685,1.281,0.908,0.418,0.720,0.684,��,5.5,��
2019/11/13,17:50,0.722,1.044,0.684,1.283,0.909,0.416,0.718,0.682,��,5.8,��
2019/11/13,18:00,0.719,1.041,0.687,1.282,0.908,0.416,0.719,0.682,��쐼,5.5,��
2019/11/13,18:10,0.722,1.041,0.686,1.280,0.909,0.418,0.718,0.683,��쐼,5.3,��
2019/11/13,18:20,0.721,1.044,0.686,1.282,0.910,0.419,0.717,0.681,��쐼,6.4,��
2019/11/13,18:30,0.721,1.044,0.686,1.280,0.909,0.419,0.720,0.683,��,6.9,�L
2019/11/13,18:40,0.721,1.041,0.684,1.279,0.909,0.417,0.720,0.685,��,7.1,�L
2019/11/13,18:50,0.721,1.043,0.688,1.280,0.908,0.419,0.719,0.684,��,6.7,�L
2019/11/13,19:00,0.721,1.043,0.688,1.281,0.909,0.420,0.720,0.685,��,6.4,�L
2019/11/13,19:10,0.721,1.038,0.688,1.285,0.905,0.423,0.718,0.684,��쐼,7.2,�L
2019/11/13,19:20,0.723,1.036,0.687,1.278,0.905,0.422,0.718,0.681,��,6.1,�L
2019/11/13,19:30,0.721,1.037,0.687,1.279,0.904,0.422,0.716,0.683,��쐼,5.2,�L
2019/11/13,19:40,0.723,1.033,0.685,1.276,0.904,0.420,0.717,0.682,��,6.0,�L
2019/11/13,19:50,0.720,1.033,0.686,1.280,0.904,0.419,0.717,0.682,��,6.6,�L
2019/11/13,20:00,0.720,1.031,0.682,1.278,0.904,0.418,0.718,0.683,��,5.5,��
2019/11/13,20:10,0.721,1.032,0.683,1.277,0.903,0.418,0.718,0.683,��쐼,5.0,��
2019/11/13,20:20,0.721,1.032,0.684,1.276,0.903,0.419,0.717,0.683,��,5.3,�L
2019/11/13,20:30,0.720,1.032,0.682,1.279,0.902,0.418,0.717,0.683,��,4.7,�L
2019/11/13,20:40,0.718,1.032,0.684,1.277,0.902,0.417,0.719,0.683,��,5.5,��
2019/11/13,20:50,0.718,1.032,0.683,1.276,0.901,0.416,0.717,0.682,��,5.5,��
2019/11/13,21:00,0.719,1.031,0.681,1.277,0.902,0.416,0.718,0.682,��,5.2,��
2019/11/13,21:10,0.720,1.029,0.682,1.275,0.902,0.418,0.718,0.682,��,4.9,��
2019/11/13,21:20,0.718,1.031,0.683,1.276,0.901,0.417,0.717,0.683,��,5.8,��
2019/11/13,21:30,0.719,1.033,0.683,1.278,0.903,0.415,0.717,0.681,��,6.7,��
2019/11/13,21:40,0.718,1.030,0.681,1.276,0.904,0.417,0.718,0.683,��,7.7,��
2019/11/13,21:50,0.718,1.029,0.682,1.276,0.901,0.415,0.716,0.684,��,6.6,��
2019/11/13,22:00,0.718,1.030,0.683,1.275,0.899,0.417,0.716,0.682,��,6.7,��
2019/11/13,22:10,0.718,1.032,0.685,1.276,0.902,0.417,0.718,0.682,��,6.1,��
2019/11/13,22:20,0.718,1.030,0.680,1.277,0.900,0.417,0.718,0.682,��쓌,6.0,��
2019/11/13,22:30,0.719,1.029,0.681,1.275,0.902,0.417,0.718,0.682,��,4.6,��
2019/11/13,22:40,0.718,1.029,0.680,1.275,0.901,0.414,0.717,0.682,��,4.9,��
2019/11/13,22:50,0.718,1.030,0.681,1.275,0.900,0.416,0.719,0.681,��,4.3,��
2019/11/13,23:00,0.718,1.031,0.683,1.275,0.901,0.417,0.719,0.682,��,4.1,��
2019/11/13,23:10,0.718,1.029,0.681,1.277,0.901,0.416,0.718,0.682,��,3.6,��
2019/11/13,23:20,0.717,1.031,0.680,1.275,0.902,0.417,0.719,0.682,��,4.6,��
2019/11/13,23:30,0.718,1.028,0.682,1.276,0.900,0.417,0.719,0.682,��,5.8,��
2019/11/13,23:40,0.720,1.029,0.683,1.276,0.900,0.417,0.720,0.683,��,6.1,��
2019/11/13,23:50,0.719,1.029,0.683,1.274,0.901,0.418,0.720,0.680,��쓌,6.3,��
